Content
SEND FEEDBACK

Daily
Averages
Monthly
Summary
United States of America

ASHEVILLE, NORTH CAROLINA


Home > North America > United States > North Carolina
Elevation: 2240 feet     Latitude: 35 36N     Longitude: 082 32W

WEATHER
 
SELECT A DAY
Number of Records: 229,634;   Date Range: 1/1/95 - 10/29/14
 
SHARE

PRINT THIS DATA

[ ← Previous Day ]
WEATHER ALMANAC - MARCH 19, 2013
[ Next Day → ]
[ °C ]   °F
Weather ElementAverageHighLow
Temperature44.5 °F57 °F (4:54 pm)39 °F (11:54 pm)
Dewpoint31.8 °F42.8 °F (6:01 am)10.9 °F (11:54 pm)
Humidity69.6 %100 % (1:16 am)20 % (4:54 pm)
Barometer29.94 in30.08 in (11:54 pm)29.86 in (4:34 am)
Wind Speed9.8 mph21.9 mph (7:54 am)
Wind Gust32.2 mph (4:54 pm)
Weather ElementAverage
Visibility6.7 mi
Wind DirectionW (275 °)

Weather ElementTotal
Precipitation---
Heating Degree Days17 (Base 65)
Averaged from 40 records on March 19, 2013
WEATHER CONDITIONS BREAKOUT
WIND DIRECTION BREAKOUT
WEATHER BY HOUR - MARCH 19, 2013
[ °C ]   °F
Local TimeTemperatureDewpointHumidityBarometerVisibilityWind DirectionWind SpeedGust SpeedPrecipitationEventsConditions
12:54 AM41.0 °F39.9 °F96 %29.88 in2.0 miCalmOvercast
12:58 AM41.0 °F39.2 °F93 %29.87 in1.2 miCalmOvercast
1:16 AM41.0 °F41.0 °F100 %29.88 in2.0 miCalmOvercast
1:24 AM41.0 °F41.0 °F100 %29.88 in8.0 miCalmOvercast
1:54 AM41.0 °F41.0 °F100 %29.88 in7.0 miCalmOvercast
2:32 AM42.8 °F41.0 °F93 %29.87 in1.8 miNW (320°)3.5 mphOvercast
2:41 AM42.8 °F41.0 °F93 %29.87 in0.8 miNNW (340°)3.5 mphOvercast
2:54 AM42.1 °F41.0 °F96 %29.87 in0.5 miCalmFogFog
3:08 AM42.8 °F41.0 °F93 %29.87 in0.5 miCalmFogFog
3:18 AM42.8 °F41.0 °F93 %29.87 in0.5 miCalmFogFog
3:54 AM41.0 °F41.0 °F100 %29.88 in0.2 miNNW (330°)6.9 mphFogFog
4:34 AM41.0 °F41.0 °F100 %29.86 in0.5 miNNW (340°)9.2 mphFogFog
4:54 AM41.0 °F41.0 °F100 %29.87 in0.5 miNorth (360°)5.8 mphFogFog
5:01 AM42.8 °F41.0 °F93 %29.87 in0.5 miNorth (350°)5.8 mphFogFog
5:25 AM42.8 °F41.0 °F93 %29.87 in1.5 miNorth (350°)6.9 mphOvercast
5:29 AM42.8 °F41.0 °F93 %29.88 in3.0 miNNW (340°)10.4 mphOvercast
5:54 AM43.0 °F42.1 °F97 %29.89 in9.0 miNNW (340°)16.1 mphOvercast
6:01 AM42.8 °F42.8 °F100 %29.89 in10.0 miNNW (330°)17.3 mphOvercast
6:29 AM42.8 °F42.8 °F100 %29.90 in10.0 miNNW (340°)17.3 mphMostly Cloudy
6:36 AM42.8 °F42.8 °F100 %29.91 in10.0 miNorth (350°)16.1 mph24.2 mphScattered Clouds
6:54 AM43.0 °F41.0 °F93 %29.93 in10.0 miNNW (340°)17.3 mph27.6 mphMostly Cloudy
7:05 AM42.8 °F39.2 °F87 %29.93 in10.0 miNorth (350°)16.1 mph26.5 mphMostly Cloudy
7:49 AM39.2 °F30.2 °F70 %29.97 in10.0 miNNW (340°)20.7 mph28.8 mphScattered Clouds
7:54 AM39.9 °F30.0 °F68 %29.98 in10.0 miNNW (340°)21.9 mph28.8 mphPartly Cloudy
8:54 AM39.9 °F27.0 °F60 %30.01 in10.0 miNNW (340°)12.7 mphClear
9:54 AM42.1 °F26.1 °F53 %29.99 in10.0 miNorth (360°)11.5 mphClear
10:54 AM45.0 °F27.0 °F49 %29.99 in10.0 miNorth (350°)11.5 mphClear
11:54 AM48.0 °F26.1 °F42 %30.00 in10.0 miNorth (350°)12.7 mph18.4 mphClear
12:54 PM51.1 °F21.9 °F32 %29.99 in10.0 miNorth (360°)16.1 mph24.2 mphClear
1:54 PM54.0 °F25.0 °F33 %29.97 in10.0 miNorth (360°)10.4 mphClear
2:54 PM55.0 °F21.0 °F27 %29.96 in10.0 miNorth (350°)12.7 mph23.0 mphClear
3:54 PM55.9 °F19.0 °F24 %29.96 in10.0 miNorth (360°)13.8 mph24.2 mphClear
4:54 PM57.0 °F16.0 °F20 %29.98 in10.0 miNNW (330°)17.3 mph32.2 mphClear
5:54 PM55.0 °F16.0 °F22 %29.99 in10.0 miNorth (360°)16.1 mph26.5 mphClear
6:54 PM52.0 °F18.0 °F26 %30.00 in10.0 miNNW (340°)16.1 mph24.2 mphClear
7:54 PM48.9 °F16.0 °F27 %30.04 in10.0 miNW (320°)10.4 mph18.4 mphClear
8:54 PM46.9 °F14.0 °F27 %30.05 in10.0 miNorth (360°)11.5 mph16.1 mphClear
9:54 PM44.1 °F12.0 °F27 %30.07 in10.0 miNNW (340°)10.4 mphClear
10:54 PM41.0 °F12.0 °F31 %30.07 in10.0 miNNW (340°)10.4 mphClear
11:54 PM39.0 °F10.9 °F32 %30.08 in10.0 miNW (320°)4.6 mphClear
Hourly data recorded from KAVL, located miles away from Asheville, North Carolina







STORIES FROM OUR PARTNERS